Regional Weather Roundup
Issued by NWS

Home | Current Version | Previous Version | Text Only | Print | Product List | Glossary On
Versions: 1 2 3 4 5 6 7 8 9 10 11 12 13 14 15 16 17 18 19 20 21 22 23 24 25 26 27 28 29 30 31 32 33 34 35 36 37 38 39 40 41 42 43 44 45 46 47 48 49 50
000
ASUS43 KTOP 250159
RWRKS

WEATHER ROUNDUP FOR KANSAS
NATIONAL WEATHER SERVICE GOODLAND KS
900 PM CDT TUE MAY 24 2016

NOTE:  "FAIR" INDICATES FEW OR NO CLOUDS BELOW 12,000 FEET WITH NO
SIGNIFICANT WEATHER AND/OR OBSTRUCTIONS TO VISIBILITY.

KSZ001>006-013>018-027>032-041>047-250300-
NORTHWEST KANSAS

CITY           SKY/WX    TMP DP  RH WIND       PRES   REMARKS
GOODLAND       PTCLDY    69  63  81 E15G24    29.76S
HAYS           CLOUDY    57  54  88 E14       29.82F THUNDER
HILL CITY      CLOUDY    72  63  73 SE7       29.77R
RUSSELL        TSTM      63  59  87 N36G49    29.84R FOG
$$

KSZ061>065-074>080-084>089-250300-
SOUTHWEST KANSAS

CITY           SKY/WX    TMP DP  RH WIND       PRES   REMARKS
DODGE CITY     TSTM      75  47  36 S7        29.74R
ELKHART          N/A     77  63  62 SE14        N/A
GARDEN CITY    CLOUDY    74  51  44 S12       29.73S
GREAT BEND     CLOUDY    66  57  72 SW48G55   29.92R THUNDER
LIBERAL        CLEAR     75  61  60 S17       29.75S
$$

KSZ066>073-081>083-090>101-250300-
SOUTHEAST KANSAS

CITY           SKY/WX    TMP DP  RH WIND       PRES   REMARKS
CHANUTE        CLOUDY    76  67  73 SE10      29.84F
COFFEYVILLE    CLOUDY    75  69  81 CALM      29.85R
HUTCHINSON     CLOUDY    77  69  76 SE9       29.82R
MEDICINE LODGE   N/A     76  66  71 S15G26    29.78R
NEWTON         CLOUDY    73  64  73 SE13      29.87R
PARSONS        CLOUDY    76  69  79 CALM      29.85F
WICHITA INTL   CLOUDY    77  66  68 SE21G30   29.82R
WICHITA JABRA  CLOUDY    75  68  78 SE14      29.83R
WINFIELD       CLOUDY    74  62  66 S12       29.85R
$$

KSZ007>012-019>026-033>040-048>060-102>105-250300-
NORTHEAST KANSAS

CITY           SKY/WX    TMP DP  RH WIND       PRES   REMARKS
CONCORDIA      CLOUDY    73  66  78 CALM      29.83S
EMPORIA        CLEAR     74  70  87 SE8       29.85R
LAWRENCE       MOCLDY    75  69  81 E8        29.87S
MANHATTAN      CLOUDY    76  68  76 SE3       29.82R
OLATHE IND     CLOUDY    75  69  81 SE6       29.89S
OLATHE EXE     CLOUDY    74  68  81 SE6       29.89F
SALINA         CLOUDY    78  71  79 SE7       29.82R
TOPEKA BILLARD MOCLDY    77  70  79 E8        29.86R
TOPEKA FORBES  MOCLDY    77  69  76 SE8       29.86R
$$




USA.gov is the U.S. government's official web portal to all federal, state and local government web resources and services.